Regional Weather Roundup
Issued by NWS

Home | Current Version | Previous Version | Graphics & Text | Print | Product List | Glossary On
Versions: 1 2 3 4 5 6 7 8 9 10 11 12 13 14 15 16 17 18 19 20 21 22 23 24 25 26 27 28 29 30 31 32 33 34 35 36 37 38 39 40 41 42 43 44 45 46 47 48 49 50
000
ASUS43 KDMX 262206
RWRIA

WEATHER ROUNDUP FOR IOWA
NATIONAL WEATHER SERVICE DES MOINES IA
500 PM CDT WED APR 26 2017

NOTE: "FAIR" INDICATES FEW OR NO CLOUDS BELOW 12,000 FEET WITH NO
SIGNIFICANT WEATHER AND/OR OBSTRUCTIONS TO VISIBILITY.

* - THESE STATIONS ARE NOT NWS STATIONS...THUS NOT UNDER NWS
QUALITY CONTROL.  THEY ALSO DO NOT REPORT WEATHER SUCH
AS PRECIPITATION OR FOG.

IAZ001>003-012>014-020>022-031>034-043>046-262300-
   NORTHWEST IOWA

CITY           SKY/WX    TMP DP  RH WIND       PRES   REMARKS
CARROLL *      CLOUDY    43  37  81 NW17      29.61S
CHEROKEE *     CLOUDY    39  35  83 NW10G20   29.63R WCI  33
DENISON *      CLOUDY    39  36  87 NW17G24   29.65S WCI  30
LE MARS *      CLOUDY    39  32  75 NW17G26   29.66S WCI  30
ORANGE CITY *  CLOUDY    37  36  93 NW16G24   29.63F WCI  28
SHELDON *      CLOUDY    37  34  87 NW20      29.61F WCI  27
SIOUX CITY     CLOUDY    41  32  70 NW23G29   29.67S
SPENCER        CLOUDY    38  34  85 NW17      29.60F WCI  28
STORM LAKE *     N/A     39  34  81 NW18G25   29.61R WCI  30
$$

IAZ055>058-069>071-079>083-090>094-262300-
   SOUTHWEST IOWA

CITY           SKY/WX    TMP DP  RH WIND       PRES   REMARKS
ATLANTIC *     CLOUDY    43  36  75 N15       29.63S
AUDUBON *      CLOUDY    39  36  87 NW13G22   29.62F WCI  32
CLARINDA *     CLOUDY    46  36  66 N17G25    29.64F
COUNCIL BLFS *   N/A     43  36  75 NW16G23   29.64F
CRESTON *      CLOUDY    45  37  76 NW18      29.61R
HARLAN  *      CLOUDY    43  36  75 NW15      29.67R
LAMONI         CLOUDY    46  38  73 N15       29.58R
RED OAK *      CLOUDY    45  34  65 NW14G23   29.64S
SHENANDOAH *   CLOUDY    45  34  65 NW13G22   29.64F
$$

IAZ047>049-059>061-072>074-084-262300-
   CENTRAL IOWA

CITY           SKY/WX    TMP DP  RH WIND       PRES   REMARKS
AMES           CLOUDY    46  39  76 NW18      29.57F
ANKENY *       CLOUDY    46  39  76 NW13G20   29.58S
BOONE *        CLOUDY    45  39  81 NW14G22   29.56F
CHARITON *     CLOUDY    46  39  76 NW14      29.57R
DES MOINES     CLOUDY    48  39  71 NW15      29.57F
GRINNELL*      CLOUDY    48  40  73 NW14G20   29.56F
KNOXVILLE *    CLOUDY    48  39  71 NW13      29.55R
MARSHALLTOWN   CLOUDY    47  39  74 NW15      29.55S
NEWTON *       CLOUDY    48  39  71 N14       29.56R
PELLA *        PTSUNNY   49  40  73 NW13      29.57R
PERRY *        CLOUDY    45  38  76 NW16G22   29.58F
$$

IAZ004>006-015-016-023>025-035-036-262300-
   NORTH CENTRAL IOWA

CITY           SKY/WX    TMP DP  RH WIND       PRES   REMARKS
ALGONA *       CLOUDY    41  37  87 NW18      29.59R
CLARION *      CLOUDY    43  39  87 NW16G24   29.57S
ESTHERVILLE    CLOUDY    37  35  92 N20       29.59F WCI  27
FORT DODGE *   CLOUDY    43  34  70 NW12G17   29.59F
MASON CITY     CLOUDY    42  36  79 NW20      29.56F
FOREST CITY *  CLOUDY    41  32  70 NW13G20   29.56S
WEBSTER CITY * CLOUDY    43  37  81 NW16G24   29.56S
IOWA FALLS *   CLOUDY    46  38  73 NW16G23   29.56F
$$

IAZ007>011-017>019-026>030-037>042-050>054-066-262300-
   NORTHEAST IOWA

CITY           SKY/WX    TMP DP  RH WIND       PRES   REMARKS
CEDAR RAPIDS   CLOUDY    50  44  80 NW13      29.52S
CHARLES CITY * CLOUDY    45  39  81 NW16      29.54S
CLINTON *      CLOUDY    51  48  89 W14       29.52F
DECORAH *      CLOUDY    45  39  81 NW9G17    29.50R
DUBUQUE        CLOUDY    49  46  90 W13       29.51R
MONTICELLO *   CLOUDY    50  45  81 W7        29.53R
OELWEIN *      CLOUDY    46  43  87 NW16      29.52S
WATERLOO       CLOUDY    46  38  73 NW10G20   29.53S
$$

IAZ064-065-067-068-078-262300-
   EAST CENTRAL IOWA

CITY           SKY/WX    TMP DP  RH WIND       PRES   REMARKS
DAVENPORT      CLOUDY    50  46  86 W12       29.53F
IOWA CITY      CLOUDY    51  43  74 NW10      29.54F
MT. PLEASANT * CLOUDY    49  43  80 NW6       29.55S
MUSCATINE *    CLOUDY    52  45  76 W8        29.54F
QUAD CITIES    CLOUDY    52  46  80 W8        29.53R
$$

IAZ062-063-075>077-085>089-095>099-262300-
   SOUTHEAST IOWA

CITY           SKY/WX    TMP DP  RH WIND       PRES   REMARKS
BURLINGTON     CLOUDY    50  47  89 NW5       29.51F
FAIRFIELD *    CLOUDY    50  43  76 NW7       29.54S
FORT MADISON * CLOUDY    50  46  87 NW9       29.53F
KEOKUK *       CLOUDY    50  46  87 NW6G13    29.52F
OSKALOOSA *    CLOUDY    51  41  69 NW14      29.55S
CENTERVILLE *  CLOUDY    50  43  76 NW8       29.57S
OTTUMWA        CLOUDY    51  44  77 NW9       29.54F
WASHINGTON *   LGT RAIN  50  46  87 W8        29.55S
$$

ABBREVIATIONS USED IN REMARKS
   TC - TEMPERATURES IN CELSIUS
  WCI - WIND CHILL INDEX
   HX - HEAT INDEX
  VSB - VISIBILITY
$$





USA.gov is the U.S. government's official web portal to all federal, state and local government web resources and services.